TimeCST,TemperatureF,Dew PointF,Humidity,Sea Level PressureIn,VisibilityMPH,Wind Direction,Wind SpeedMPH,Gust SpeedMPH,PrecipitationIn,Events,Conditions,WindDirDegrees,DateUTC
12:15 AM,4.5,1.4,87,30.31,10.0,North,3.5,-,N/A,,Clear,360,2012-12-26 06:15:00
12:35 AM,2.8,-0.6,86,30.31,10.0,Calm,Calm,-,N/A,,Clear,0,2012-12-26 06:35:00
12:55 AM,2.3,-0.6,88,30.31,10.0,Calm,Calm,-,N/A,,Clear,0,2012-12-26 06:55:00
1:15 AM,1.9,-1.7,85,30.31,10.0,Calm,Calm,-,N/A,,Clear,0,2012-12-26 07:15:00
1:35 AM,1.8,-1.5,86,30.32,10.0,Calm,Calm,-,N/A,,Clear,0,2012-12-26 07:35:00
1:55 AM,1.8,-2.0,84,30.32,10.0,North,4.6,-,N/A,,Mostly Cloudy,360,2012-12-26 07:55:00
2:15 AM,2.7,-1.1,84,30.32,10.0,Calm,Calm,-,N/A,,Overcast,0,2012-12-26 08:15:00
2:35 AM,5.9,3.0,88,30.31,10.0,North,5.8,-,N/A,,Overcast,360,2012-12-26 08:35:00
2:55 AM,6.4,3.2,87,30.31,10.0,North,3.5,-,N/A,,Scattered Clouds,10,2012-12-26 08:55:00
3:15 AM,6.3,3.4,88,30.31,10.0,North,4.6,-,N/A,,Clear,10,2012-12-26 09:15:00
3:35 AM,5.4,2.5,88,30.30,10.0,North,3.5,-,N/A,,Clear,10,2012-12-26 09:35:00
3:55 AM,6.6,3.7,88,30.30,10.0,North,4.6,-,N/A,,Scattered Clouds,360,2012-12-26 09:55:00
4:15 AM,6.6,3.7,88,30.28,10.0,North,5.8,-,N/A,,Scattered Clouds,10,2012-12-26 10:15:00
4:35 AM,6.8,3.9,88,30.28,10.0,NNE,4.6,-,N/A,,Clear,20,2012-12-26 10:35:00
4:55 AM,6.6,3.2,86,30.28,10.0,NNE,3.5,-,N/A,,Scattered Clouds,20,2012-12-26 10:55:00
5:35 AM,7.7,4.8,88,30.27,10.0,North,3.5,-,N/A,,Scattered Clouds,360,2012-12-26 11:35:00
5:55 AM,8.1,5.0,87,30.26,10.0,North,5.8,-,N/A,,Scattered Clouds,360,2012-12-26 11:55:00
6:15 AM,8.6,5.4,87,30.26,10.0,NNE,6.9,-,N/A,,Clear,20,2012-12-26 12:15:00
6:35 AM,8.4,5.0,86,30.25,10.0,NNE,6.9,-,N/A,,Clear,20,2012-12-26 12:35:00
6:55 AM,7.2,3.9,87,30.25,10.0,NNE,5.8,-,N/A,,Clear,20,2012-12-26 12:55:00
7:15 AM,7.3,3.9,86,30.24,10.0,NNE,5.8,-,N/A,,Scattered Clouds,30,2012-12-26 13:15:00
7:35 AM,7.0,3.9,87,30.24,10.0,NE,4.6,-,N/A,,Overcast,40,2012-12-26 13:35:00
7:55 AM,7.9,4.8,87,30.24,10.0,NNE,4.6,-,N/A,,Overcast,30,2012-12-26 13:55:00
8:15 AM,8.8,5.4,86,30.25,10.0,North,4.6,-,N/A,,Overcast,10,2012-12-26 14:15:00
8:55 AM,9.5,5.7,85,30.25,10.0,NNE,4.6,-,N/A,,Overcast,30,2012-12-26 14:55:00
9:15 AM,10.2,5.9,83,30.25,10.0,NNE,4.6,-,N/A,,Mostly Cloudy,30,2012-12-26 15:15:00
9:35 AM,11.7,6.8,81,30.25,10.0,NNE,5.8,-,N/A,,Scattered Clouds,20,2012-12-26 15:35:00
9:55 AM,13.5,8.2,80,30.25,10.0,NNE,5.8,-,N/A,,Scattered Clouds,30,2012-12-26 15:55:00
10:15 AM,14.9,9.5,79,30.25,10.0,NNE,3.5,-,N/A,,Scattered Clouds,30,2012-12-26 16:15:00
10:35 AM,16.0,10.0,77,30.25,10.0,NNE,6.9,-,N/A,,Clear,30,2012-12-26 16:35:00
10:55 AM,17.2,10.4,75,30.24,10.0,NNE,6.9,-,N/A,,Scattered Clouds,20,2012-12-26 16:55:00
11:15 AM,18.5,11.1,73,30.23,10.0,NNE,6.9,-,N/A,,Scattered Clouds,30,2012-12-26 17:15:00
11:35 AM,19.4,11.8,72,30.22,10.0,NNE,5.8,-,N/A,,Clear,30,2012-12-26 17:35:00
11:55 AM,20.7,13.1,73,30.21,10.0,NE,5.8,-,N/A,,Clear,40,2012-12-26 17:55:00
12:15 PM,21.0,13.1,71,30.20,10.0,North,4.6,-,N/A,,Clear,360,2012-12-26 18:15:00
12:35 PM,21.6,13.1,70,30.18,10.0,North,5.8,-,N/A,,Clear,360,2012-12-26 18:35:00
12:55 PM,22.1,13.6,70,30.18,10.0,North,5.8,-,N/A,,Clear,350,2012-12-26 18:55:00
1:15 PM,22.5,13.8,69,30.18,10.0,North,5.8,-,N/A,,Scattered Clouds,10,2012-12-26 19:15:00
1:35 PM,22.5,13.8,69,30.17,10.0,North,5.8,-,N/A,,Clear,10,2012-12-26 19:35:00
1:55 PM,22.6,14.0,69,30.16,10.0,North,6.9,-,N/A,,Clear,360,2012-12-26 19:55:00
2:15 PM,22.8,14.0,69,30.17,10.0,NNE,5.8,-,N/A,,Clear,20,2012-12-26 20:15:00
2:35 PM,22.6,14.2,70,30.17,10.0,North,5.8,-,N/A,,Clear,360,2012-12-26 20:35:00
2:55 PM,22.6,14.0,69,30.18,10.0,NNE,6.9,-,N/A,,Clear,20,2012-12-26 20:55:00
3:15 PM,22.5,14.0,70,30.18,10.0,NNE,5.8,-,N/A,,Clear,20,2012-12-26 21:15:00
3:35 PM,23.0,13.8,68,30.18,10.0,North,5.8,-,N/A,,Scattered Clouds,360,2012-12-26 21:35:00
3:55 PM,22.6,13.6,68,30.19,10.0,NW,6.9,-,N/A,,Scattered Clouds,320,2012-12-26 21:55:00
4:15 PM,21.7,13.1,69,30.20,10.0,North,6.9,-,N/A,,Scattered Clouds,10,2012-12-26 22:15:00
4:35 PM,21.0,13.1,71,30.20,10.0,North,4.6,-,N/A,,Clear,10,2012-12-26 22:35:00
4:55 PM,19.4,12.2,74,30.20,10.0,NNE,6.9,-,N/A,,Clear,20,2012-12-26 22:55:00
5:15 PM,19.0,12.0,74,30.19,10.0,NNE,5.8,-,N/A,,Clear,20,2012-12-26 23:15:00
5:35 PM,18.1,11.3,75,30.19,10.0,North,5.8,-,N/A,,Clear,10,2012-12-26 23:35:00
5:55 PM,17.6,11.1,76,30.19,10.0,North,4.6,-,N/A,,Clear,360,2012-12-26 23:55:00
6:15 PM,16.3,10.6,78,30.18,10.0,North,3.5,-,N/A,,Clear,10,2012-12-27 00:15:00
6:35 PM,14.7,10.0,82,30.18,10.0,Calm,Calm,-,N/A,,Mostly Cloudy,0,2012-12-27 00:35:00
6:55 PM,13.8,9.7,84,30.18,10.0,Calm,Calm,-,N/A,,Overcast,0,2012-12-27 00:55:00
7:15 PM,13.8,9.7,84,30.18,10.0,North,3.5,-,N/A,,Overcast,350,2012-12-27 01:15:00
7:35 PM,15.8,10.8,80,30.18,10.0,North,3.5,-,N/A,,Overcast,350,2012-12-27 01:35:00
7:55 PM,16.3,10.9,79,30.18,10.0,NNW,3.5,-,N/A,,Overcast,340,2012-12-27 01:55:00
8:15 PM,16.7,10.9,78,30.18,10.0,NNW,4.6,-,N/A,,Overcast,340,2012-12-27 02:15:00
8:35 PM,17.1,10.9,77,30.18,10.0,NNW,5.8,-,N/A,,Overcast,340,2012-12-27 02:35:00
8:55 PM,17.2,10.9,76,30.18,10.0,NNW,5.8,-,N/A,,Overcast,340,2012-12-27 02:55:00
9:15 PM,17.4,10.9,76,30.18,10.0,NNW,5.8,-,N/A,,Overcast,330,2012-12-27 03:15:00
9:35 PM,17.4,11.1,76,30.18,10.0,NNW,5.8,-,N/A,,Overcast,340,2012-12-27 03:35:00
9:55 PM,17.2,11.1,77,30.18,10.0,NNW,4.6,-,N/A,,Overcast,340,2012-12-27 03:55:00
10:15 PM,17.2,11.1,77,30.18,10.0,NNW,4.6,-,N/A,,Overcast,340,2012-12-27 04:15:00
10:35 PM,17.4,11.3,77,30.18,10.0,NNW,5.8,-,N/A,,Overcast,330,2012-12-27 04:35:00
10:55 PM,17.4,11.3,77,30.18,10.0,NNW,6.9,-,N/A,,Overcast,340,2012-12-27 04:55:00
11:15 PM,17.4,11.3,77,30.18,10.0,North,6.9,-,N/A,,Overcast,350,2012-12-27 05:15:00
11:35 PM,17.4,11.8,79,30.17,10.0,North,6.9,-,N/A,,Overcast,350,2012-12-27 05:35:00
11:55 PM,17.4,12.0,79,30.17,10.0,North,5.8,-,N/A,,Overcast,360,2012-12-27 05:55:00